Regional Weather Roundup
Issued by NWS Kansas City/Pleasant Hill, MO

Home | Current Version | Previous Version | Text Only | Print | Product List | Glossary On
Versions: 1 2 3 4 5 6 7 8 9 10 11 12 13 14 15 16 17 18 19 20 21 22 23 24 25 26 27 28 29 30 31 32 33 34 35 36 37 38 39 40 41 42 43 44 45 46 47 48 49 50
000
ASUS43 KEAX 201211
RWREAX

WEATHER ROUNDUP FOR EASTERN KANSAS AND NORTHWEST MISSOURI
NATIONAL WEATHER SERVICE KANSAS CITY/PLEASANT HILL MO
700 AM CDT SAT SEP 20 2014

KSZ040-057-103>105-MOZ028-029-037-043-201300-
...KANSAS CITY METROPOLITAN AREA...

CITY           SKY/WX    TMP DP  RH WIND       PRES   REMARKS
K.C. INTL      PTCLDY    67  66  97 SW7       29.97R FOG
6HR MIN TEMP:  67; 6HR MAX TEMP:  69;

K.C. DOWNTOWN  CLEAR     71  67  87 SW7       29.95R
6HR MIN TEMP:  70; 6HR MAX TEMP:  72;

LEES SUMMIT    CLEAR     68  66  93 SW12      29.97R FOG
6HR MIN TEMP:  67; 6HR MAX TEMP:  69;

OLATHE - IXD   CLEAR     67  67 100 S12       29.97R FOG
6HR MIN TEMP:  65; 6HR MAX TEMP:  67;

OLATHE - OJC   CLEAR     68  66  93 SW7       29.96R FOG
6HR MIN TEMP:  66; 6HR MAX TEMP:  68;

LAWRENCE       PTCLDY    68  65  90 CALM      29.96R FOG

$$

MOZ001>008-011>017-020>025-030>033-038>040-044>046-053-054-201300-
...NORTHERN AND CENTRAL MISSOURI...

CITY           SKY/WX    TMP DP  RH WIND       PRES   REMARKS
ST. JOSEPH     PTCLDY    66  65  96 SW5       29.96R FOG
6HR MIN TEMP:  65; 6HR MAX TEMP:  69;

MOSBY            N/A     64  64 100 CALM      29.98R FOG
WHITEMAN AFB   CLEAR     64  63  94 S9        29.98R
6HR MIN TEMP:  63; 6HR MAX TEMP:  65;

CLINTON        CLEAR     64  64 100 CALM      30.00R FOG
SEDALIA        CLEAR     67  64  90 S9        30.00R FOG
6HR MIN TEMP:  66; 6HR MAX TEMP:  68;

WARSAW         NOT AVBL
MARSHALL       CLEAR     66  66 100 S5        29.99R FOG
CHILLICOTHE      N/A     65  64  97 CALM      29.97R
6HR MIN TEMP:  65; 6HR MAX TEMP:  69;

MOBERLY        CLEAR     66  61  82 SW7       29.99R
KIRKSVILLE     CLOUDY    64  63  96 N6        30.00R FOG
6HR MIN TEMP:  64; 6HR MAX TEMP:  68;


$$

MOZ041-047>049-056>058-063>065-088>090-097-201300-
...EASTERN AND SOUTHERN MISSOURI...

CITY           SKY/WX    TMP DP  RH WIND       PRES   REMARKS
ST. LOUIS INTL MOCLDY    65  60  84 S3        30.01R
6HR MIN TEMP:  65; 6HR MAX TEMP:  69;

SPIRIT OF STL  PTCLDY    57  55  94 CALM      30.00R
COLUMBIA       CLEAR     62  61  96 S5        30.01R FOG
JEFFERSON CITY CLEAR     64  62  93 CALM      30.00R
MEXICO         CLEAR    N/A N/A N/A S6        29.99R HAZE
HANNIBAL       CLEAR     64  63  94 S9        30.00R FOG
ROLLA          CLEAR     64  62  93 S9        30.02R
LEBANON        CLEAR     64  63  94 S6        30.05R FOG
OSAGE BEACH    CLEAR     63  59  88 S3        30.01R
SPRINGFIELD    CLEAR     65  63  93 S8        30.03R
BRANSON        PTCLDY    63  61  94 CALM      30.07R FOG
NEVADA         CLEAR     66  66 100 S7        30.01R FOG
JOPLIN         CLEAR     67  66  97 S8        30.02R FOG
WEST PLAINS    PTCLDY    59  57  93 CALM      30.08R FOG

$$

IAZ060-094-KSZ022-034>040-054-083-096-NEZ052-066-093-201300-
...KANSAS...SOUTHEAST NEBRASKA AND IOWA...

CITY           SKY/WX    TMP DP  RH WIND       PRES   REMARKS
TOPEKA         PTCLDY    69  68  96 CALM      29.95R FOG
6HR MIN TEMP:  69; 6HR MAX TEMP:  71;

MANHATTAN      CLEAR     69  67  93 SW8       29.93R FOG
EMPORIA        CLEAR     68  66  93 S7        29.96R
CHANUTE        PTCLDY    67  66  97 S9        29.98F FOG
WICHITA        PTCLDY    67  64  90 S5        29.96F FOG
OMAHA          CLOUDY    70  66  87 S6        29.89R
LINCOLN        CLOUDY    69  66  90 S12       29.89S
FALLS CITY     CLOUDY    70  67  90 N7        29.97R
LAMONI         CLOUDY    67  66  97 S5        29.97S FOG
DES MOINES     TSTM      69  64  84 SW23G32   29.87F

$$




USA.gov is the U.S. government's official web portal to all federal, state and local government web resources and services.